Delray Beach, FL (33444)

4:46 PM EDT on July 21, 2017 (GMT -0400)
Lake Ida - Garden House | | Change Station

Elev 0 ft 26.48 °N, 80.07 °W | Updated 12 seconds ago

Mostly Cloudy
Mostly Cloudy
77.4 °F
Feels Like 79 °F
N
0.0
Wind Variable Wind from ESE

Today
High -- | Low -- °F
--% Chance of Precip.
Yesterday
High -- | Low -- °F
Precip. -- in
Pressure 30.05 in
Visibility 10.0 miles
Clouds Few 4500 ft
Scattered Clouds 7500 ft
Mostly Cloudy 10000 ft
Heat Index 79 °F
Dew Point 71 °F
Humidity 83%
Rainfall 0.00 in
Snow Depth Not available.
6:40 AM 8:13 PM
Waning Crescent, 4% visible
METAR KPMP 211953Z 22003KT 10SM -RA FEW045 SCT075 BKN100 26/23 A3005 RMK AO2 SLP175 P0002 T02610233
Pressure 30.05 in
Visibility 10.0 miles
Clouds Few 4500 ft
Scattered Clouds 7500 ft
Mostly Cloudy 10000 ft
Heat Index 79 °F
Dew Point 71 °F
Humidity 83%
Rainfall 0.00 in
Snow Depth Not available.
6:40 AM 8:13 PM
Waning Crescent, 4% visible
METAR KPMP 211953Z 22003KT 10SM -RA FEW045 SCT075 BKN100 26/23 A3005 RMK AO2 SLP175 P0002 T02610233

Get Severe Weather Alerts

Thanks for signing up!

Be on the lookout for a verification email in your inbox.

You'll start receiving the daily forecast at 6 AM.

×

10-Day Weather Forecast

Almanac

Astronomy

Jul. 21, 2017 Rise Set
Actual Time
Civil Twilight
Nautical Twilight
Astronomical Twilight
Moon
Length of Visible Light
Length of Day
Tomorrow will be .
, % of the Moon is Illuminated

Today's Extremes

State Highs State Lows

Community

WunderPhotos

Category 6

Welcome to Category 6. This is the collective home for Weather Underground's featured writeups by Dr. Jeff Masters (right), Bob Henson (left), Chris Burt, and other regular contributors.

Nearby

Air Quality

  Air Quality AQ Index Pollutant
Not available.

Snow Depth

Station Depth Elevation

Earthquake Activity

City Distance Mag. Time & Date
Minimum magnitude displayed is 2.5.

Coastal Water Temperatures

Place Temperature

Stations

Nearby Weather Stations

Station Location Temp. Windchill Dew Point Humidity Wind Precip. Elev Updated Type
                   

Watches & Warnings

There are currently no watches in effect.